Other Public Products
Issued by NWS Grand Forks, ND

Home | Current Version | Previous Version | Text Only | Print | Product List | Glossary On
Versions: 1 2 3 4 5 6 7 8 9 10 11 12 13 14 15 16 17 18 19 20 21 22 23 24 25 26 27 28 29 30 31 32 33 34 35 36 37 38 39 40 41 42 43 44 45 46 47 48 49 50
000
FPUS83 KFGF 192331
OPUFGF
PRAIRIE TO PINES WEATHER ROUNDUP
NATIONAL WEATHER SERVICE EASTERN NORTH DAKOTA/GRAND FORKS ND
600 PM CDT SAT AUG 19 2017

 **SATELLITE DATA USED TO AUGMENT SKY COVER AT AUTOMATED STATIONS**
 *****  WEATHER ACROSS EASTERN NORTH DAKOTA  *****

CITY           SKY/WX    TMP DP  RH WIND       PRES   REMARKS
GRAND FORKS    FAIR      85  61  44 S21       29.71F
GRAND FORKS AF FAIR      82  60  47 S15       29.72S
GRAND CITY NWS NOT AVBL
BUXTON           N/A     81  60  49 S18         N/A
DEVILS LAKE    FAIR      81  63  54 S13       29.71S
FARGO          FAIR      79  62  56 S14G25    29.76F
WAHPETON ARPT  FAIR      75  61  60 S10       29.79F
$$

 *****  WEATHER ACROSS CENTRAL AND WESTERN NORTH DAKOTA  *****

CITY           SKY/WX    TMP DP  RH WIND       PRES   REMARKS
JAMESTOWN      FAIR      78  63  59 S10       29.74F
BISMARCK       FAIR      86  63  45 SW6       29.73F
MINOT          FAIR      89  50  26 W21       29.68R
MINOT AFB      FAIR      87  47  24 NW21G28   29.67R
GARRISON         N/A     85  47  26 W22G36    29.72S
WILLISTON      FAIR      82  47  29 N25G36    29.81R
DICKINSON      FAIR      81  47  30 NW17G29   29.82R
HETTINGER      FAIR      83  45  26 NW14      29.85S
$$

 *****  OTHER OBSERVATIONS NORTHEAST NORTH DAKOTA  *****

CITY           SKY/WX    TMP DP  RH WIND       PRES   REMARKS
WALHALLA       FAIR      84  81  89 S14G25    29.67R HX  98
LANGDON        FAIR      81  63  54 S21G28    29.70F
CAVALIER       FAIR      82  59  44 S16       29.67S
GRAFTON        FAIR      81  61  50 S16G26    29.72R
CANDO          FAIR      82  64  54 S13G18    29.69F
FORT TOTTEN      N/A     83  62  48 S12       29.95S
ROLLA          FAIR      82  61  47 SW13      29.68S
RUGBY          FAIR      84  63  48 SW7       29.66S
 ***** THE ABOVE OBSERVATIONS ARE NON NWS ARE NOT QUALITY
        CONTROLLED AND MAY MIS-REPORT RAIN FOR SNOW...
$$

 *****  OTHER OBSERVATIONS SOUTHEAST NORTH DAKOTA *****

CITY           SKY/WX    TMP DP  RH WIND       PRES   REMARKS
COOPERSTOWN    FAIR      79  63  57 S15G23    29.75S
VALLEY CITY      N/A     79  63  57 S13       29.77S
OAKES          NOT AVBL
GWINNER        CLEAR     77  64  65 S9        29.77S
SHEYENNE NWR     N/A     79  65  62 S13       29.95S
BUFFALO          N/A     80  56  43 N8          N/A
WYNDMERE       NOT AVBL
 ***** THE ABOVE OBSERVATIONS ARE NON NWS ARE NOT QUALITY
       CONTROLLED AND MAY MIS-REPORT RAIN FOR SNOW...
$$

  *****  WEATHER ACROSS NORTHERN MINNESOTA  *****

CITY           SKY/WX    TMP DP  RH WIND       PRES   REMARKS
FLAG ISLAND    FAIR      77  66  69 S3        29.73S
WARROAD        FAIR      81  64  57 S5        29.74F
ROSEAU         FAIR      84  61  45 S13       29.73F
HALLOCK        FAIR      84  57  39 S20       29.69S
THF RVR FALLS  FAIR      81  58  45 S15G22    29.77F
HALSTAD          N/A     79  63  57 S16         N/A
FOSSTON        FAIR      79  55  44 S16       29.80F
BAUDETTE       FAIR      81  57  43 S9        29.77S
WASKISH        CLOUDY    81  61  50 SW5       29.80S
CROOKSTON      FAIR      82  59  44 S21G26    29.75S
$$
  *****  WEATHER ACROSS CENTRAL AND WEST MINNESOTA  *****

CITY           SKY/WX    TMP DP  RH WIND       PRES   REMARKS
BEMIDJI        FAIR      79  57  47 S9        29.82S
PARK RAPIDS    FAIR      79  58  48 S12       29.84F
WADENA         FAIR      75  59  57 S10       29.85S
DETROIT LAKES  FAIR      77  59  53 S8        29.83F
MOORHEAD       FAIR      79  61  53 S13G20    29.78F
FERGUS FALLS   FAIR      77  64  65 S9        29.80F
ELBOW LAKE     FAIR      75  65  70 S12       29.83F HAZE
MORRIS MN      FAIR      79  64  61 S14       29.83S
STAPLES        FAIR      75  57  53 S6        29.86S
WHEATON        FAIR      77  63  61 SE12G18   29.81F
$$
  *****  WEATHER ELSEWHERE ACROSS MINNESOTA  *****

CITY           SKY/WX    TMP DP  RH WIND       PRES   REMARKS
DULUTH         FAIR      78  60  53 SW8       29.86F
INTRNTL FALLS  FAIR      79  54  41 SW7       29.79F
ELY            FAIR      77  54  44 W7        29.84S
CLOQUET        FAIR      77  55  47 SW7       29.87S
BRAINERD       FAIR      77  58  51 SW13      29.87S
HIBBING        FAIR      76  55  48 SW9       29.85S
ALEXANDRIA     FAIR      76  61  59 S14       29.88F
SAINT CLOUD    FAIR      78  60  53 S9        29.88S
MINNEAPOLIS    FAIR      80  61  52 SW8       29.89S
$$

  *****  WEATHER ACROSS SOUTH DAKOTA  *****

CITY           SKY/WX    TMP DP  RH WIND       PRES   REMARKS
SIOUX FALLS    FAIR      80  65  59 S14       29.85F
BROOKINGS      FAIR      78  63  59 S15       29.85F
WATERTOWN      FAIR      77  63  61 SE15      29.83S
HURON          FAIR      82  63  52 S16       29.80S
SISSETON         N/A     79  63  57 SE13G22   29.78F
ABERDEEN       FAIR      79  62  56 S14       29.77F
MITCHELL       FAIR      83  65  54 SE15      29.81F
PIERRE         FAIR      92  61  35 SE14      29.73F HX  92
MOBRIDGE       FAIR      86  67  52 S6        29.73S
RAPID CITY     FAIR      91  48  22 NW10      29.84F
$$

  *****  SOME WEATHER IN NEARBY STATES *****

CITY           SKY/WX    TMP DP  RH WIND       PRES   REMARKS
GLASGOW MT     FAIR      78  38  23 NW14G26   29.89F
GREAT FALLS MT FAIR      74  38  27 NE14      29.97S
CHEYENNE WY    FAIR      88  19   8 NW14G20   30.07F
SCOTTSBLUFF NE FAIR      96  31  10 NW6       29.90F HX  90
OMAHA NE       FAIR      86  61  42 SE16      29.88F
DES MOINES IA  FAIR      84  60  44 S6        29.90S
DAVENPORT IA   FAIR      81  61  50 SE3       29.96S
CHICAGO IL     FAIR      82  56  40 E7        29.94S
EAU CLAIRE WI  FAIR      78  59  51 SW9       29.91S
LA CROSSE WI   FAIR      83  58  42 SW6       29.91F
$$

  *****  SOME NATIONAL WEATHER *****

CITY           SKY/WX    TMP DP  RH WIND       PRES   REMARKS
LA GUARDIA NY  FAIR      86  63  45 W10       29.82R
RALEIGH NC     FAIR      90  67  46 N5        29.94S HX  93
ATLANTA GA     FAIR      86  66  51 W7        29.97S
NEW ORLEANS LA CLOUDY    85  75  72 E8        29.99R HX  93
OKLAHOMA CITY  FAIR      94  68  42 S13       29.91S HX  98
ALBUQUERQUE NM PTSUNNY   87  44  22 E31       30.08F
SALT LAKE CITY FAIR      94  34  12 S7        29.97F
LOS ANGELES CA FAIR      72  61  68 W15       29.91F
BOISE ID       FAIR      87  37  17 NW14G23   29.96F
SEATTLE WA     FAIR      75  50  41 NW10      30.17F
$$

*** WEATHER ACROSS MANITOBA...SASKATCHEWAN AND ONTARIO ***
                ***ONTARIO***

CITY           SKY/WX    TMP DP  RH WIND       PRES   REMARKS
GERALDTON      MOSUNNY   73  52  46 W9        29.77S
THUNDER BAY    MOSUNNY   81  57  44 W9        29.78S
SIOUX LOOKOUT  PTSUNNY   77  55  47 SW8       29.76R
TORONTO        PTSUNNY   70  57  64 NW22      29.86R
BIG TROUT LK   SUNNY     75  54  46 W8        29.62S
PICKLE LAKE    PTSUNNY   79  50  36 W12G18    29.70F
DRYDEN         SUNNY     81  50  34 SW12G17   29.76S
KENORA         PTSUNNY   81  55  41 SW12      29.75F
$$
                *** MANITOBA***

CITY           SKY/WX    TMP DP  RH WIND       PRES   REMARKS
BRANDON        MOSUNNY   86  63  45 SW13G21   29.60S
DAUPHIN        SUNNY     84  59  42 W18G28    29.56R
ISLAND LAKE    MOSUNNY   82  54  36 SW6       29.55
PILOT MOUND      N/A     82  59  44 S18G26      N/A
THE PAS        PTSUNNY   70  55  60 NW28G37   29.57R SMOKE
THOMPSON       PTSUNNY   77  57  50 E5        29.49F
WINNIPEG       MOSUNNY   88  59  37 S20G29    29.63S
LYNN LAKE      LGT RAIN  59  57  94 MISG      29.59R
CHURCHILL      FOG       54  52  94 E6        29.62F VSB 1/4
GILLAM         PTSUNNY   72  55  56 E3        29.58S
$$
                ***SASKATCHEWAN***

CITY           SKY/WX    TMP DP  RH WIND       PRES   REMARKS
ESTEVAN        CLOUDY    77  45  31 NW24G33   29.79R
KINDERSLEY     MOSUNNY   70  32  24 NW18G31   29.92S
LLOYDMINSTER   MOSUNNY   64  43  45 W17G23    29.88R
PRINCE ALBERT  MOSUNNY   70  39  32 NW21      29.77S
REGINA         PTSUNNY   73  36  25 NW21G33   29.83R
YORKTON        SUNNY     72  48  43 NW26G33   29.72R



USA.gov is the U.S. government's official web portal to all federal, state and local government web resources and services.